Year,Month,Day,Hour,Minute,Value (Times are PST for temperature in C)
2017,04,03,00,00,0.80
2017,04,03,00,01,0.80
2017,04,03,00,02,0.80
2017,04,03,00,03,0.80
2017,04,03,00,04,0.90
2017,04,03,00,05,0.90
2017,04,03,00,06,0.90
2017,04,03,00,07,0.90
2017,04,03,00,08,1.00
2017,04,03,00,09,1.00
2017,04,03,00,10,0.90
2017,04,03,00,11,0.90
2017,04,03,00,12,0.90
2017,04,03,00,13,0.80
2017,04,03,00,14,0.80
2017,04,03,00,15,0.80
2017,04,03,00,16,0.70
2017,04,03,00,17,0.70
2017,04,03,00,18,0.70
2017,04,03,00,19,0.70
2017,04,03,00,20,0.70
2017,04,03,00,21,0.70
2017,04,03,00,22,0.70
2017,04,03,00,23,0.70
2017,04,03,00,24,0.70
2017,04,03,00,25,0.60
2017,04,03,00,26,0.60
2017,04,03,00,27,0.60
2017,04,03,00,28,0.50
2017,04,03,00,29,0.50
2017,04,03,00,30,0.50
2017,04,03,00,31,0.40
2017,04,03,00,32,0.40
2017,04,03,00,33,0.40
2017,04,03,00,34,0.40
2017,04,03,00,35,0.30
2017,04,03,00,36,0.30
2017,04,03,00,37,0.30
2017,04,03,00,38,0.30
2017,04,03,00,39,0.30
2017,04,03,00,40,0.30
2017,04,03,00,41,0.30
2017,04,03,00,42,0.40
2017,04,03,00,43,0.40
2017,04,03,00,44,0.40
2017,04,03,00,45,0.40
2017,04,03,00,46,0.50
2017,04,03,00,47,0.60
2017,04,03,00,48,0.60
2017,04,03,00,49,0.70
2017,04,03,00,50,0.70
2017,04,03,00,51,0.70
2017,04,03,00,52,0.70
2017,04,03,00,53,0.60
2017,04,03,00,54,0.60
2017,04,03,00,55,0.70
2017,04,03,00,56,0.60
2017,04,03,00,57,0.60
2017,04,03,00,58,0.60
2017,04,03,00,59,0.60
2017,04,03,01,00,0.70
2017,04,03,01,01,0.70
2017,04,03,01,02,0.80
2017,04,03,01,03,0.80
2017,04,03,01,04,0.80
2017,04,03,01,05,0.80
2017,04,03,01,06,0.80
2017,04,03,01,07,0.70
2017,04,03,01,08,0.70
2017,04,03,01,09,0.70
2017,04,03,01,10,0.60
2017,04,03,01,11,0.60
2017,04,03,01,12,0.60
2017,04,03,01,13,0.60
2017,04,03,01,14,0.60
2017,04,03,01,15,0.60
2017,04,03,01,16,0.60
2017,04,03,01,17,0.60
2017,04,03,01,18,0.70
2017,04,03,01,19,0.60
2017,04,03,01,20,0.60
2017,04,03,01,21,0.60
2017,04,03,01,22,0.50
2017,04,03,01,23,0.40
2017,04,03,01,24,0.50
2017,04,03,01,25,0.50
2017,04,03,01,26,0.50
2017,04,03,01,27,0.50
2017,04,03,01,28,0.50
2017,04,03,01,29,0.50
2017,04,03,01,30,0.50
2017,04,03,01,31,0.40
2017,04,03,01,32,0.40
2017,04,03,01,33,0.40
2017,04,03,01,34,0.30
2017,04,03,01,35,0.30
2017,04,03,01,36,0.20
2017,04,03,01,37,0.20
2017,04,03,01,38,0.20
2017,04,03,01,39,0.20
2017,04,03,01,40,0.20
2017,04,03,01,41,0.20
2017,04,03,01,42,0.20
2017,04,03,01,43,0.20
2017,04,03,01,44,0.20
2017,04,03,01,45,0.20
2017,04,03,01,46,0.20
2017,04,03,01,47,0.20
2017,04,03,01,48,0.20
2017,04,03,01,49,0.30
2017,04,03,01,50,0.30
2017,04,03,01,51,0.30
2017,04,03,01,52,0.30
2017,04,03,01,53,0.30
2017,04,03,01,54,0.30
2017,04,03,01,55,0.30
2017,04,03,01,56,0.30
2017,04,03,01,57,0.30
2017,04,03,01,58,0.30
2017,04,03,01,59,0.30
2017,04,03,02,00,0.30
2017,04,03,02,01,0.30
2017,04,03,02,02,0.30
2017,04,03,02,03,0.40
2017,04,03,02,04,0.40
2017,04,03,02,05,0.40
2017,04,03,02,06,0.30
2017,04,03,02,07,0.40
2017,04,03,02,08,0.40
2017,04,03,02,09,0.40
2017,04,03,02,10,0.40
2017,04,03,02,11,0.40
2017,04,03,02,12,0.40
2017,04,03,02,13,0.30
2017,04,03,02,14,0.20
2017,04,03,02,15,0.20
2017,04,03,02,16,0.10
2017,04,03,02,17,0.10
2017,04,03,02,18,0.10
2017,04,03,02,19,0.10
2017,04,03,02,20,0.10
2017,04,03,02,21,0.10
2017,04,03,02,22,0.20
2017,04,03,02,23,0.20
2017,04,03,02,24,0.30
2017,04,03,02,25,0.30
2017,04,03,02,26,0.40
2017,04,03,02,27,0.40
2017,04,03,02,28,0.40
2017,04,03,02,29,0.30
2017,04,03,02,30,0.30
2017,04,03,02,31,0.30
2017,04,03,02,32,0.30
2017,04,03,02,33,0.20
2017,04,03,02,34,0.20
2017,04,03,02,35,0.20
2017,04,03,02,36,0.20
2017,04,03,02,37,0.20
2017,04,03,02,38,0.20
2017,04,03,02,39,0.20
2017,04,03,02,40,0.20
2017,04,03,02,41,0.20
2017,04,03,02,42,0.20
2017,04,03,02,43,0.20
2017,04,03,02,44,0.20
2017,04,03,02,45,0.30
2017,04,03,02,46,0.20
2017,04,03,02,47,0.20
2017,04,03,02,48,0.20
2017,04,03,02,49,0.20
2017,04,03,02,50,0.20
2017,04,03,02,51,0.20
2017,04,03,02,52,0.20
2017,04,03,02,53,0.20
2017,04,03,02,54,0.30
2017,04,03,02,55,0.30
2017,04,03,02,56,0.30
2017,04,03,02,57,0.30
2017,04,03,02,58,0.30
2017,04,03,02,59,0.30
2017,04,03,03,00,0.30
2017,04,03,03,01,0.20
2017,04,03,03,02,0.20
2017,04,03,03,03,0.20
2017,04,03,03,04,0.20
2017,04,03,03,05,0.20
2017,04,03,03,06,0.10
2017,04,03,03,07,0.10
2017,04,03,03,08,0.10
2017,04,03,03,09,0.10
2017,04,03,03,10,0.20
2017,04,03,03,11,0.20
2017,04,03,03,12,0.20
2017,04,03,03,13,0.10
2017,04,03,03,14,0.10
2017,04,03,03,15,0.10
2017,04,03,03,16,0.10
2017,04,03,03,17,0.10
2017,04,03,03,18,0.10
2017,04,03,03,19,0.10
2017,04,03,03,20,0.10
2017,04,03,03,21,0.10
2017,04,03,03,22,0.10
2017,04,03,03,23,0.00
2017,04,03,03,24,-0.10
2017,04,03,03,25,-0.10
2017,04,03,03,26,-0.10
2017,04,03,03,27,-0.20
2017,04,03,03,28,-0.20
2017,04,03,03,29,-0.20
2017,04,03,03,30,-0.20
2017,04,03,03,31,-0.30
2017,04,03,03,32,-0.30
2017,04,03,03,33,-0.30
2017,04,03,03,34,-0.30
2017,04,03,03,35,-0.20
2017,04,03,03,36,-0.20
2017,04,03,03,37,-0.20
2017,04,03,03,38,-0.20
2017,04,03,03,39,-0.20
2017,04,03,03,40,-0.20
2017,04,03,03,41,-0.20
2017,04,03,03,42,-0.20
2017,04,03,03,43,-0.20
2017,04,03,03,44,-0.10
2017,04,03,03,45,-0.10
2017,04,03,03,46,-0.10
2017,04,03,03,47,-0.10
2017,04,03,03,48,-0.20
2017,04,03,03,49,-0.20
2017,04,03,03,50,-0.30
2017,04,03,03,51,-0.30
2017,04,03,03,52,-0.30
2017,04,03,03,53,-0.30
2017,04,03,03,54,-0.30
2017,04,03,03,55,-0.30
2017,04,03,03,56,-0.30
2017,04,03,03,57,-0.30
2017,04,03,03,58,-0.30
2017,04,03,03,59,-0.40
2017,04,03,04,00,-0.40
2017,04,03,04,01,-0.40
2017,04,03,04,02,-0.40
2017,04,03,04,03,-0.40
2017,04,03,04,04,-0.40
2017,04,03,04,05,-0.40
2017,04,03,04,06,-0.40
2017,04,03,04,07,-0.30
2017,04,03,04,08,-0.30
2017,04,03,04,09,-0.20
2017,04,03,04,10,-0.20
2017,04,03,04,11,-0.10
2017,04,03,04,12,-0.10
2017,04,03,04,13,0.00
2017,04,03,04,14,0.00
2017,04,03,04,15,0.00
2017,04,03,04,16,0.00
2017,04,03,04,17,0.00
2017,04,03,04,18,0.00
2017,04,03,04,19,0.10
2017,04,03,04,20,0.00
2017,04,03,04,21,0.00
2017,04,03,04,22,-0.10
2017,04,03,04,23,-0.10
2017,04,03,04,24,-0.10
2017,04,03,04,25,-0.20
2017,04,03,04,26,-0.20
2017,04,03,04,27,-0.20
2017,04,03,04,28,-0.20
2017,04,03,04,29,-0.20
2017,04,03,04,30,-0.20
2017,04,03,04,31,-0.20
2017,04,03,04,32,-0.20
2017,04,03,04,33,-0.20
2017,04,03,04,34,-0.20
2017,04,03,04,35,-0.30
2017,04,03,04,36,-0.30
2017,04,03,04,37,-0.30
2017,04,03,04,38,-0.30
2017,04,03,04,39,-0.30
2017,04,03,04,40,-0.30
2017,04,03,04,41,-0.20
2017,04,03,04,42,-0.20
2017,04,03,04,43,-0.20
2017,04,03,04,44,-0.20
2017,04,03,04,45,-0.20
2017,04,03,04,46,-0.20
2017,04,03,04,47,-0.10
2017,04,03,04,48,-0.10
2017,04,03,04,49,-0.10
2017,04,03,04,50,-0.10
2017,04,03,04,51,-0.10
2017,04,03,04,52,-0.10
2017,04,03,04,53,-0.10
2017,04,03,04,54,-0.10
2017,04,03,04,55,-0.10
2017,04,03,04,56,-0.20
2017,04,03,04,57,-0.20
2017,04,03,04,58,-0.30
2017,04,03,04,59,-0.30
2017,04,03,05,00,-0.30
2017,04,03,05,01,-0.40
2017,04,03,05,02,-0.40
2017,04,03,05,03,-0.40
2017,04,03,05,04,-0.40
2017,04,03,05,05,-0.40
2017,04,03,05,06,-0.40
2017,04,03,05,07,-0.40
2017,04,03,05,08,-0.40
2017,04,03,05,09,-0.30
2017,04,03,05,10,-0.30
2017,04,03,05,11,-0.30
2017,04,03,05,12,-0.40
2017,04,03,05,13,-0.40
2017,04,03,05,14,-0.50
2017,04,03,05,15,-0.50
2017,04,03,05,16,-0.50
2017,04,03,05,17,-0.50
2017,04,03,05,18,-0.50
2017,04,03,05,19,-0.50
2017,04,03,05,20,-0.50
2017,04,03,05,21,-0.50
2017,04,03,05,22,-0.50
2017,04,03,05,23,-0.50
2017,04,03,05,24,-0.50
2017,04,03,05,25,-0.50
2017,04,03,05,26,-0.50
2017,04,03,05,27,-0.50
2017,04,03,05,28,-0.50
2017,04,03,05,29,-0.60
2017,04,03,05,30,-0.50
2017,04,03,05,31,-0.50
2017,04,03,05,32,-0.50
2017,04,03,05,33,-0.60
2017,04,03,05,34,-0.60
2017,04,03,05,35,-0.60
2017,04,03,05,36,-0.70
2017,04,03,05,37,-0.70
2017,04,03,05,38,-0.70
2017,04,03,05,39,-0.70
2017,04,03,05,40,-0.60
2017,04,03,05,41,-0.70
2017,04,03,05,42,-0.70
2017,04,03,05,43,-0.70
2017,04,03,05,44,-0.70
2017,04,03,05,45,-0.70
2017,04,03,05,46,-0.70
2017,04,03,05,47,-0.70
2017,04,03,05,48,-0.60
2017,04,03,05,49,-0.60
2017,04,03,05,50,-0.50
2017,04,03,05,51,-0.50
2017,04,03,05,52,-0.50
2017,04,03,05,53,-0.50
2017,04,03,05,54,-0.50
2017,04,03,05,55,-0.50
2017,04,03,05,56,-0.50
2017,04,03,05,57,-0.50
2017,04,03,05,58,-0.50
2017,04,03,05,59,-0.40
2017,04,03,06,00,-0.30
2017,04,03,06,01,-0.20
2017,04,03,06,02,-0.20
2017,04,03,06,03,-0.10
2017,04,03,06,04,-0.10
2017,04,03,06,05,-0.10
2017,04,03,06,06,-0.10
2017,04,03,06,07,-0.10
2017,04,03,06,08,-0.10
2017,04,03,06,09,-0.10
2017,04,03,06,10,-0.10
2017,04,03,06,11,-0.10
2017,04,03,06,12,-0.10
2017,04,03,06,13,-0.20
2017,04,03,06,14,-0.20
2017,04,03,06,15,-0.30
2017,04,03,06,16,-0.30
2017,04,03,06,17,-0.30
2017,04,03,06,18,-0.30
2017,04,03,06,19,-0.30
2017,04,03,06,20,-0.40
2017,04,03,06,21,-0.40
2017,04,03,06,22,-0.40
2017,04,03,06,23,-0.40
2017,04,03,06,24,-0.40
2017,04,03,06,25,-0.40
2017,04,03,06,26,-0.40
2017,04,03,06,27,-0.40
2017,04,03,06,28,-0.40
2017,04,03,06,29,-0.40
2017,04,03,06,30,-0.40
2017,04,03,06,31,-0.50
2017,04,03,06,32,-0.50
2017,04,03,06,33,-0.50
2017,04,03,06,34,-0.50
2017,04,03,06,35,-0.50
2017,04,03,06,36,-0.40
2017,04,03,06,37,-0.40
2017,04,03,06,38,-0.40
2017,04,03,06,39,-0.30
2017,04,03,06,40,-0.30
2017,04,03,06,41,-0.30
2017,04,03,06,42,-0.30
2017,04,03,06,43,-0.30
2017,04,03,06,44,-0.30
2017,04,03,06,45,-0.30
2017,04,03,06,46,-0.30
2017,04,03,06,47,-0.30
2017,04,03,06,48,-0.40
2017,04,03,06,49,-0.40
2017,04,03,06,50,-0.40
2017,04,03,06,51,-0.40
2017,04,03,06,52,-0.40
2017,04,03,06,53,-0.50
2017,04,03,06,54,-0.50
2017,04,03,06,55,-0.50
2017,04,03,06,56,-0.50
2017,04,03,06,57,-0.50
2017,04,03,06,58,-0.50
2017,04,03,06,59,-0.50
2017,04,03,07,00,-0.50
2017,04,03,07,01,-0.50
2017,04,03,07,02,-0.50
2017,04,03,07,03,-0.50
2017,04,03,07,04,-0.50
2017,04,03,07,05,-0.40
2017,04,03,07,06,-0.40
2017,04,03,07,07,-0.40
2017,04,03,07,08,-0.40
2017,04,03,07,09,-0.40
2017,04,03,07,10,-0.40
2017,04,03,07,11,-0.50
2017,04,03,07,12,-0.50
2017,04,03,07,13,-0.50
2017,04,03,07,14,-0.60
2017,04,03,07,15,-0.60
2017,04,03,07,16,-0.60
2017,04,03,07,17,-0.60
2017,04,03,07,18,-0.70
2017,04,03,07,19,-0.70
2017,04,03,07,20,-0.60
2017,04,03,07,21,-0.60
2017,04,03,07,22,-0.60
2017,04,03,07,23,-0.60
2017,04,03,07,24,-0.60
2017,04,03,07,25,-0.50
2017,04,03,07,26,-0.50
2017,04,03,07,27,-0.40
2017,04,03,07,28,-0.40
2017,04,03,07,29,-0.40
2017,04,03,07,30,-0.40
2017,04,03,07,31,-0.40
2017,04,03,07,32,-0.40
2017,04,03,07,33,-0.40
2017,04,03,07,34,-0.40
2017,04,03,07,35,-0.40
2017,04,03,07,36,-0.30
2017,04,03,07,37,-0.30
2017,04,03,07,38,-0.20
2017,04,03,07,39,-0.20
2017,04,03,07,40,-0.20
2017,04,03,07,41,-0.20
2017,04,03,07,42,-0.20
2017,04,03,07,43,-0.20
2017,04,03,07,44,-0.20
2017,04,03,07,45,-0.10
2017,04,03,07,46,0.00
2017,04,03,07,47,0.00
2017,04,03,07,48,0.10
2017,04,03,07,49,0.10
2017,04,03,07,50,0.20
2017,04,03,07,51,0.20
2017,04,03,07,52,0.20
2017,04,03,07,53,0.30
2017,04,03,07,54,0.30
2017,04,03,07,55,0.40
2017,04,03,07,56,0.40
2017,04,03,07,57,0.50
2017,04,03,07,58,0.50
2017,04,03,07,59,0.50
2017,04,03,08,00,0.60
2017,04,03,08,01,0.70
2017,04,03,08,02,0.70
2017,04,03,08,03,0.80
2017,04,03,08,04,0.80
2017,04,03,08,05,0.90
2017,04,03,08,06,1.00
2017,04,03,08,07,1.10
2017,04,03,08,08,1.10
2017,04,03,08,09,1.20
2017,04,03,08,10,1.20
2017,04,03,08,11,1.30
2017,04,03,08,12,1.30
2017,04,03,08,13,1.40
2017,04,03,08,14,1.40
2017,04,03,08,15,1.40
2017,04,03,08,16,1.50
2017,04,03,08,17,1.50
2017,04,03,08,18,1.60
2017,04,03,08,19,1.60
2017,04,03,08,20,1.70
2017,04,03,08,21,1.80
2017,04,03,08,22,1.80
2017,04,03,08,23,1.90
2017,04,03,08,24,1.90
2017,04,03,08,25,2.00
2017,04,03,08,26,2.10
2017,04,03,08,27,2.10
2017,04,03,08,28,2.20
2017,04,03,08,29,2.20
2017,04,03,08,30,2.30
2017,04,03,08,31,2.30
2017,04,03,08,32,2.40
2017,04,03,08,33,2.40
2017,04,03,08,34,2.40
2017,04,03,08,35,2.50
2017,04,03,08,36,2.50
2017,04,03,08,37,2.50
2017,04,03,08,38,2.60
2017,04,03,08,39,2.60
2017,04,03,08,40,2.60
2017,04,03,08,41,2.70
2017,04,03,08,42,2.70
2017,04,03,08,43,2.70
2017,04,03,08,44,2.80
2017,04,03,08,45,2.80
2017,04,03,08,46,2.80
2017,04,03,08,47,2.90
2017,04,03,08,48,2.90
2017,04,03,08,49,2.90
2017,04,03,08,50,2.90
2017,04,03,08,51,3.00
2017,04,03,08,52,3.00
2017,04,03,08,53,3.00
2017,04,03,08,54,3.10
2017,04,03,08,55,3.10
2017,04,03,08,56,3.10
2017,04,03,08,57,3.20
2017,04,03,08,58,3.20
2017,04,03,08,59,3.20
2017,04,03,09,00,3.20
2017,04,03,09,01,3.20
2017,04,03,09,02,3.20
2017,04,03,09,03,3.30
2017,04,03,09,04,3.30
2017,04,03,09,05,3.30
2017,04,03,09,06,3.40
2017,04,03,09,07,3.40
2017,04,03,09,08,3.50
2017,04,03,09,09,3.60
2017,04,03,09,10,3.60
2017,04,03,09,11,3.70
2017,04,03,09,12,3.70
2017,04,03,09,13,3.80
2017,04,03,09,14,3.80
2017,04,03,09,15,3.90
2017,04,03,09,16,3.90
2017,04,03,09,17,4.00
2017,04,03,09,18,4.00
2017,04,03,09,19,4.10
2017,04,03,09,20,4.10
2017,04,03,09,21,4.20
2017,04,03,09,22,4.20
2017,04,03,09,23,4.20
2017,04,03,09,24,4.30
2017,04,03,09,25,4.30
2017,04,03,09,26,4.30
2017,04,03,09,27,4.40
2017,04,03,09,28,4.40
2017,04,03,09,29,4.40
2017,04,03,09,30,4.50
2017,04,03,09,31,4.50
2017,04,03,09,32,4.60
2017,04,03,09,33,4.60
2017,04,03,09,34,4.60
2017,04,03,09,35,4.60
2017,04,03,09,36,4.70
2017,04,03,09,37,4.70
2017,04,03,09,38,4.70
2017,04,03,09,39,4.80
2017,04,03,09,40,4.80
2017,04,03,09,41,4.90
2017,04,03,09,42,5.00
2017,04,03,09,43,5.00
2017,04,03,09,44,5.10
2017,04,03,09,45,5.10
2017,04,03,09,46,5.00
2017,04,03,09,47,5.00
2017,04,03,09,48,5.00
2017,04,03,09,49,5.00
2017,04,03,09,50,5.00
2017,04,03,09,51,5.00
2017,04,03,09,52,5.10
2017,04,03,09,53,5.10
2017,04,03,09,54,5.20
2017,04,03,09,55,5.20
2017,04,03,09,56,5.30
2017,04,03,09,57,5.30
2017,04,03,09,58,5.30
2017,04,03,09,59,5.40
2017,04,03,10,00,5.40
2017,04,03,10,01,5.40
2017,04,03,10,02,5.40
2017,04,03,10,03,5.40
2017,04,03,10,04,5.40
2017,04,03,10,05,5.40
2017,04,03,10,06,5.50
2017,04,03,10,07,5.50
2017,04,03,10,08,5.60
2017,04,03,10,09,5.70
2017,04,03,10,10,5.80
2017,04,03,10,11,5.90
2017,04,03,10,12,6.00
2017,04,03,10,13,6.00
2017,04,03,10,14,6.10
2017,04,03,10,15,6.10
2017,04,03,10,16,6.10
2017,04,03,10,17,6.10
2017,04,03,10,18,6.20
2017,04,03,10,19,6.20
2017,04,03,10,20,6.20
2017,04,03,10,21,6.30
2017,04,03,10,22,6.30
2017,04,03,10,23,6.20
2017,04,03,10,24,6.20
2017,04,03,10,25,6.20
2017,04,03,10,26,6.20
2017,04,03,10,27,6.20
2017,04,03,10,28,6.20
2017,04,03,10,29,6.20
2017,04,03,10,30,6.30
2017,04,03,10,31,6.30
2017,04,03,10,32,6.30
2017,04,03,10,33,6.30
2017,04,03,10,34,6.40
2017,04,03,10,35,6.40
2017,04,03,10,36,6.40
2017,04,03,10,37,6.40
2017,04,03,10,38,6.40
2017,04,03,10,39,6.40
2017,04,03,10,40,6.40
2017,04,03,10,41,6.40
2017,04,03,10,42,6.40
2017,04,03,10,43,6.40
2017,04,03,10,44,6.40
2017,04,03,10,45,6.40
2017,04,03,10,46,6.40
2017,04,03,10,47,6.40
2017,04,03,10,48,6.40
2017,04,03,10,49,6.50
2017,04,03,10,50,6.50
2017,04,03,10,51,6.50
2017,04,03,10,52,6.50
2017,04,03,10,53,6.60
2017,04,03,10,54,6.60
2017,04,03,10,55,6.70
2017,04,03,10,56,6.80
2017,04,03,10,57,6.80
2017,04,03,10,58,6.80
2017,04,03,10,59,6.80
2017,04,03,11,00,6.70
2017,04,03,11,01,6.70
2017,04,03,11,02,6.80
2017,04,03,11,03,6.80
2017,04,03,11,04,6.80
2017,04,03,11,05,6.90
2017,04,03,11,06,7.00
2017,04,03,11,07,7.00
2017,04,03,11,08,7.00
2017,04,03,11,09,7.00
2017,04,03,11,10,7.00
2017,04,03,11,11,7.10
2017,04,03,11,12,7.10
2017,04,03,11,13,7.10
2017,04,03,11,14,7.10
2017,04,03,11,15,7.10
2017,04,03,11,16,7.10
2017,04,03,11,17,7.10
2017,04,03,11,18,7.20
2017,04,03,11,19,7.20
2017,04,03,11,20,7.20
2017,04,03,11,21,7.20
2017,04,03,11,22,7.20
2017,04,03,11,23,7.20
2017,04,03,11,24,7.20
2017,04,03,11,25,7.20
2017,04,03,11,26,7.10
2017,04,03,11,27,7.10
2017,04,03,11,28,7.10
2017,04,03,11,29,7.10
2017,04,03,11,30,7.00
2017,04,03,11,31,7.00
2017,04,03,11,32,7.00
2017,04,03,11,33,7.00
2017,04,03,11,34,6.90
2017,04,03,11,35,6.90
2017,04,03,11,36,6.90
2017,04,03,11,37,6.90
2017,04,03,11,38,6.90
2017,04,03,11,39,6.90
2017,04,03,11,40,6.90
2017,04,03,11,41,6.90
2017,04,03,11,42,7.00
2017,04,03,11,43,7.10
2017,04,03,11,44,7.20
2017,04,03,11,45,7.30
2017,04,03,11,46,7.30
2017,04,03,11,47,7.30
2017,04,03,11,48,7.30
2017,04,03,11,49,7.30
2017,04,03,11,50,7.30
2017,04,03,11,51,7.30
2017,04,03,11,52,7.30
2017,04,03,11,53,7.40
2017,04,03,11,54,7.40
2017,04,03,11,55,7.50
2017,04,03,11,56,7.60
2017,04,03,11,57,7.70
2017,04,03,11,58,7.70
2017,04,03,11,59,7.70
2017,04,03,12,00,7.70
2017,04,03,12,01,7.70
2017,04,03,12,02,7.70
2017,04,03,12,03,7.60
2017,04,03,12,04,7.50
2017,04,03,12,05,7.50
2017,04,03,12,06,7.40
2017,04,03,12,07,7.30
2017,04,03,12,08,7.30
2017,04,03,12,09,7.20
2017,04,03,12,10,7.30
2017,04,03,12,11,7.30
2017,04,03,12,12,7.30
2017,04,03,12,13,7.30
2017,04,03,12,14,7.40
2017,04,03,12,15,7.40
2017,04,03,12,16,7.50
2017,04,03,12,17,7.60
2017,04,03,12,18,7.70
2017,04,03,12,19,7.70
2017,04,03,12,20,7.70
2017,04,03,12,21,7.70
2017,04,03,12,22,7.70
2017,04,03,12,23,7.70
2017,04,03,12,24,7.70
2017,04,03,12,25,7.70
2017,04,03,12,26,7.70
2017,04,03,12,27,7.70
2017,04,03,12,28,7.60
2017,04,03,12,29,7.60
2017,04,03,12,30,7.60
2017,04,03,12,31,7.50
2017,04,03,12,32,7.50
2017,04,03,12,33,7.50
2017,04,03,12,34,7.50
2017,04,03,12,35,7.50
2017,04,03,12,36,7.60
2017,04,03,12,37,7.60
2017,04,03,12,38,7.60
2017,04,03,12,39,7.60
2017,04,03,12,40,7.60
2017,04,03,12,41,7.60
2017,04,03,12,42,7.70
2017,04,03,12,43,7.70
2017,04,03,12,44,7.80
2017,04,03,12,45,7.90
2017,04,03,12,46,8.00
2017,04,03,12,47,8.10
2017,04,03,12,48,8.10
2017,04,03,12,49,8.20
2017,04,03,12,50,8.30
2017,04,03,12,51,8.30
2017,04,03,12,52,8.30
2017,04,03,12,53,8.30
2017,04,03,12,54,8.30
2017,04,03,12,55,8.30
2017,04,03,12,56,8.30
2017,04,03,12,57,8.30
2017,04,03,12,58,8.30
2017,04,03,12,59,8.30
2017,04,03,13,00,8.40
2017,04,03,13,01,8.40
2017,04,03,13,02,8.40
2017,04,03,13,03,8.30
2017,04,03,13,04,8.30
2017,04,03,13,05,8.30
2017,04,03,13,06,8.30
2017,04,03,13,07,8.30
2017,04,03,13,08,8.30
2017,04,03,13,09,8.30
2017,04,03,13,10,8.30
2017,04,03,13,11,8.20
2017,04,03,13,12,8.20
2017,04,03,13,13,8.20
2017,04,03,13,14,8.20
2017,04,03,13,15,8.20
2017,04,03,13,16,8.20
2017,04,03,13,17,8.30
2017,04,03,13,18,8.40
2017,04,03,13,19,8.50
2017,04,03,13,20,8.50
2017,04,03,13,21,8.60
2017,04,03,13,22,8.70
2017,04,03,13,23,8.70
2017,04,03,13,24,8.60
2017,04,03,13,25,8.50
2017,04,03,13,26,8.50
2017,04,03,13,27,8.40
2017,04,03,13,28,8.30
2017,04,03,13,29,8.30
2017,04,03,13,30,8.30
2017,04,03,13,31,8.30
2017,04,03,13,32,8.40
2017,04,03,13,33,8.50
2017,04,03,13,34,8.60
2017,04,03,13,35,8.60
2017,04,03,13,36,8.70
2017,04,03,13,37,8.70
2017,04,03,13,38,8.70
2017,04,03,13,39,8.70
2017,04,03,13,40,8.80
2017,04,03,13,41,8.80
2017,04,03,13,42,8.80
2017,04,03,13,43,8.80
2017,04,03,13,44,8.80
2017,04,03,13,45,8.90
2017,04,03,13,46,8.80
2017,04,03,13,47,8.80
2017,04,03,13,48,8.80
2017,04,03,13,49,8.80
2017,04,03,13,50,8.80
2017,04,03,13,51,8.90
2017,04,03,13,52,8.90
2017,04,03,13,53,8.90
2017,04,03,13,54,8.90
2017,04,03,13,55,8.90
2017,04,03,13,56,8.90
2017,04,03,13,57,8.80
2017,04,03,13,58,8.80
2017,04,03,13,59,8.80
2017,04,03,14,00,8.90
2017,04,03,14,01,9.00
2017,04,03,14,02,9.10
2017,04,03,14,03,9.10
2017,04,03,14,04,9.20
2017,04,03,14,05,9.10
2017,04,03,14,06,9.10
2017,04,03,14,07,9.10
2017,04,03,14,08,9.10
2017,04,03,14,09,9.10
2017,04,03,14,10,9.10
2017,04,03,14,11,9.10
2017,04,03,14,12,9.10
2017,04,03,14,13,9.10
2017,04,03,14,14,9.10
2017,04,03,14,15,9.20
2017,04,03,14,16,9.20
2017,04,03,14,17,9.20
2017,04,03,14,18,9.30
2017,04,03,14,19,9.30
2017,04,03,14,20,9.40
2017,04,03,14,21,9.40
2017,04,03,14,22,9.40
2017,04,03,14,23,9.30
2017,04,03,14,24,9.30
2017,04,03,14,25,9.30
2017,04,03,14,26,9.30
2017,04,03,14,27,9.30
2017,04,03,14,28,9.30
2017,04,03,14,29,9.40
2017,04,03,14,30,9.40
2017,04,03,14,31,9.40
2017,04,03,14,32,9.50
2017,04,03,14,33,9.50
2017,04,03,14,34,9.60
2017,04,03,14,35,9.60
2017,04,03,14,36,9.60
2017,04,03,14,37,9.60
2017,04,03,14,38,9.60
2017,04,03,14,39,9.60
2017,04,03,14,40,9.60
2017,04,03,14,41,9.60
2017,04,03,14,42,9.60
2017,04,03,14,43,9.50
2017,04,03,14,44,9.50
2017,04,03,14,45,9.50
2017,04,03,14,46,9.40
2017,04,03,14,47,9.40
2017,04,03,14,48,9.40
2017,04,03,14,49,9.50
2017,04,03,14,50,9.50
2017,04,03,14,51,9.60
2017,04,03,14,52,9.70
2017,04,03,14,53,9.70
2017,04,03,14,54,9.70
2017,04,03,14,55,9.70
2017,04,03,14,56,9.70
2017,04,03,14,57,9.60
2017,04,03,14,58,9.60
2017,04,03,14,59,9.70
2017,04,03,15,00,9.60
2017,04,03,15,01,9.60
2017,04,03,15,02,9.70
2017,04,03,15,03,9.70
2017,04,03,15,04,9.70
2017,04,03,15,05,9.60
2017,04,03,15,06,9.50
2017,04,03,15,07,9.50
2017,04,03,15,08,9.50
2017,04,03,15,09,9.40
2017,04,03,15,10,9.40
2017,04,03,15,11,9.40
2017,04,03,15,12,9.40
2017,04,03,15,13,9.40
2017,04,03,15,14,9.50
2017,04,03,15,15,9.50
2017,04,03,15,16,9.50
2017,04,03,15,17,9.40
2017,04,03,15,18,9.40
2017,04,03,15,19,9.40
2017,04,03,15,20,9.40
2017,04,03,15,21,9.40
2017,04,03,15,22,9.40
2017,04,03,15,23,9.30
2017,04,03,15,24,9.30
2017,04,03,15,25,9.40
2017,04,03,15,26,9.40
2017,04,03,15,27,9.50
2017,04,03,15,28,9.50
2017,04,03,15,29,9.60
2017,04,03,15,30,9.70
2017,04,03,15,31,9.70
2017,04,03,15,32,9.70
2017,04,03,15,33,9.60
2017,04,03,15,34,9.50
2017,04,03,15,35,9.50
2017,04,03,15,36,9.40
2017,04,03,15,37,9.40
2017,04,03,15,38,9.40
2017,04,03,15,39,9.40
2017,04,03,15,40,9.50
2017,04,03,15,41,9.50
2017,04,03,15,42,9.50
2017,04,03,15,43,9.50
2017,04,03,15,44,9.50
2017,04,03,15,45,9.50
2017,04,03,15,46,9.50
2017,04,03,15,47,9.50
2017,04,03,15,48,9.60
2017,04,03,15,49,9.60
2017,04,03,15,50,9.60
2017,04,03,15,51,9.60
2017,04,03,15,52,9.60
2017,04,03,15,53,9.60
2017,04,03,15,54,9.60
2017,04,03,15,55,9.60
2017,04,03,15,56,9.60
2017,04,03,15,57,9.60
2017,04,03,15,58,9.60
2017,04,03,15,59,9.70
2017,04,03,16,00,9.80
2017,04,03,16,01,9.80
2017,04,03,16,02,9.90
2017,04,03,16,03,9.90
2017,04,03,16,04,9.90
2017,04,03,16,05,9.90
2017,04,03,16,06,9.90
2017,04,03,16,07,10.00
2017,04,03,16,08,10.00
2017,04,03,16,09,10.00
2017,04,03,16,10,10.10
2017,04,03,16,11,10.10
2017,04,03,16,12,10.20
2017,04,03,16,13,10.20
2017,04,03,16,14,10.20
2017,04,03,16,15,10.20
2017,04,03,16,16,10.20
2017,04,03,16,17,10.20
2017,04,03,16,18,10.10
2017,04,03,16,19,10.10
2017,04,03,16,20,10.10
2017,04,03,16,21,10.10
2017,04,03,16,22,10.10
2017,04,03,16,23,10.20
2017,04,03,16,24,10.20
2017,04,03,16,25,10.20
2017,04,03,16,26,10.10
2017,04,03,16,27,10.10
2017,04,03,16,28,10.00
2017,04,03,16,29,10.00
2017,04,03,16,30,9.90
2017,04,03,16,31,9.90
2017,04,03,16,32,9.90
2017,04,03,16,33,9.90
2017,04,03,16,34,9.90
2017,04,03,16,35,9.90
2017,04,03,16,36,10.00
2017,04,03,16,37,10.00
2017,04,03,16,38,10.00
2017,04,03,16,39,10.10
2017,04,03,16,40,10.00
2017,04,03,16,41,10.00
2017,04,03,16,42,10.00
2017,04,03,16,43,10.00
2017,04,03,16,44,10.00
2017,04,03,16,45,10.00
2017,04,03,16,46,10.00
2017,04,03,16,47,10.00
2017,04,03,16,48,10.10
2017,04,03,16,49,10.20
2017,04,03,16,50,10.20
2017,04,03,16,51,10.30
2017,04,03,16,52,10.30
2017,04,03,16,53,10.30
2017,04,03,16,54,10.30
2017,04,03,16,55,10.30
2017,04,03,16,56,10.30
2017,04,03,16,57,10.30
2017,04,03,16,58,10.20
2017,04,03,16,59,10.20
2017,04,03,17,00,10.20
2017,04,03,17,01,10.20
2017,04,03,17,02,10.30
2017,04,03,17,03,10.30
2017,04,03,17,04,10.40
2017,04,03,17,05,10.40
2017,04,03,17,06,10.40
2017,04,03,17,07,10.40
2017,04,03,17,08,10.40
2017,04,03,17,09,10.40
2017,04,03,17,10,10.30
2017,04,03,17,11,10.30
2017,04,03,17,12,10.20
2017,04,03,17,13,10.20
2017,04,03,17,14,10.20
2017,04,03,17,15,10.10
2017,04,03,17,16,10.10
2017,04,03,17,17,10.10
2017,04,03,17,18,10.10
2017,04,03,17,19,10.00
2017,04,03,17,20,10.00
2017,04,03,17,21,10.00
2017,04,03,17,22,9.90
2017,04,03,17,23,9.90
2017,04,03,17,24,10.00
2017,04,03,17,25,10.00
2017,04,03,17,26,10.00
2017,04,03,17,27,10.10
2017,04,03,17,28,10.10
2017,04,03,17,29,10.20
2017,04,03,17,30,10.20
2017,04,03,17,31,10.10
2017,04,03,17,32,10.10
2017,04,03,17,33,10.10
2017,04,03,17,34,10.20
2017,04,03,17,35,10.20
2017,04,03,17,36,10.20
2017,04,03,17,37,10.20
2017,04,03,17,38,10.20
2017,04,03,17,39,10.30
2017,04,03,17,40,10.30
2017,04,03,17,41,10.30
2017,04,03,17,42,10.30
2017,04,03,17,43,10.30
2017,04,03,17,44,10.30
2017,04,03,17,45,10.20
2017,04,03,17,46,10.10
2017,04,03,17,47,10.10
2017,04,03,17,48,10.00
2017,04,03,17,49,10.00
2017,04,03,17,50,10.00